Powrót do katalogu

STARLINK-35635

AktywnyŁącznośćVLEO
NORAD 66161·PAYLOAD·🇺🇸 United States

Wystrzelony Oct 25, 2025 z Cape Canaveral Space Force Station

Loading…

Następne Przeloty (najbliższe 24 godziny)

TLE

ŚwieżeSource: CelesTrak SupGP

Epoka: Sep 14, 2026, 22:47 UTC

1 66161C 25240R   26257.94979167  .00050684  00000+0  14978-2 0  2577
2 66161  53.1566 261.7448 0001266  85.5811 248.4359 15.34358000    18

Śledź STARLINK-35635 w czasie rzeczywistym z AllMySat

Download on the App Store